Regional Weather Roundup
Issued by NWS

Home | Current Version | Previous Version | Graphics & Text | Print | Product List | Glossary On
Versions: 1 2 3 4 5 6 7 8 9 10 11 12 13 14 15 16 17 18 19 20 21 22 23 24 25 26 27 28 29 30 31 32 33 34 35 36 37 38 39 40 41 42 43 44 45 46 47 48 49 50
398
ASUS45 KBOU 230707
RWRCO

WEATHER ROUNDUP FOR COLORADO
NATIONAL WEATHER SERVICE DENVER/BOULDER CO
100 AM MDT SAT SEP 23 2017

NOTE: "FAIR" INDICATES FEW OR NO CLOUDS BELOW 12000 FEET WITH NO
SIGNIFICANT WEATHER AND/OR OBSTRUCTIONS TO VISIBILITY.

COZ001>005-013-030-031-230800-
...NORTHWEST COLORADO...

CITY           SKY/WX    TMP DP  RH WIND       PRES   REMARKS
CRAIG          CLOUDY    46  42  86 NE5       29.94F
HAYDEN         MOCLDY    44  40  85 SW5       29.98R
MEEKER         LGT RAIN  50  42  74 VRB6      29.92R
RABBIT EARS PA FAIR      36  32  87 W7        30.10F
STEAMBOAT SPGS MOCLDY    45  38  77 E3        29.95S
WALDEN         FAIR      37  34  87 CALM      30.01F
$$

COZ006>008-011-230800-
...WEST CENTRAL VALLEYS...

CITY           SKY/WX    TMP DP  RH WIND       PRES   REMARKS
GRAND JUNCTION FAIR      58  32  37 NW5       29.78R
MONTROSE       CLOUDY    56  38  50 E5        29.88S
EAGLE          FAIR      45  36  70 SE3       29.94F
RIFLE          FAIR      57  38  48 S3        29.83F
DELTA          NOT AVBL
NUCLA          MOCLDY    55  28  35 E7        29.91R
$$

COZ017>023-064>068-230800-
...SOUTHWEST COLORADO...

CITY           SKY/WX    TMP DP  RH WIND       PRES   REMARKS
DURANGO        MOCLDY    54  44  69 CALM      29.94F
CORTEZ         LGT RAIN  59  37  44 S9        29.89S
PAGOSA SPRINGS RAIN      49  47  95 NE7       30.05F
TELLURIDE      FAIR      53  26  35 SW3G17    30.05S
WOLF CREEK PAS TSTM      32  32 100 S16G30    30.27F VSB 1/4 WCI  21
$$

COZ009-010-012-014-032>034-037-058>063-230800-
...CENTRAL COLORADO...

CITY           SKY/WX    TMP DP  RH WIND       PRES   REMARKS
ASPEN          MOCLDY    45  37  73 SE5       29.95F
BUENA VISTA    LGT RAIN  53  40  63 S13G21    30.05R
COPPER MTN     MOCLDY    45  27  49 SE16G29   30.20S
BERTHOUD PASS  FAIR      32  23  69 SE40G48   30.21F WCI  16
COTTONWOOD PAS CLOUDY    48  37  66 SW10      30.14R
GUNNISON       FAIR      46  36  68 NW7       30.01R
KREMMLING      FAIR      45  37  76 CALM      29.98S
LEADVILLE      LGT RAIN  47  32  56 SE14G21   30.08S
MONARCH PASS   CLOUDY    34  32  93 SW29G43   30.33F FOG     WCI  20
SALIDA         CLOUDY    54  46  74 S15       30.13R
SUNLIGHT       MOCLDY    36  30  80 S6        30.13F
WILKERSON PASS CLOUDY    41  32  70 S10G21    30.24S
$$

COZ069>075-230800-
...SAN LUIS VALLEY/SANGRE DE CRISTO MOUNTAINS...

CITY           SKY/WX    TMP DP  RH WIND       PRES   REMARKS
ALAMOSA        LGT RAIN  50  47  89 N10       30.05F
DEL NORTE      MOCLDY    46  41  82 W13       30.10R THUNDER
LA VETA PASS   FAIR      45  36  70 S17G25    30.27F
SAGUACHE       MOCLDY    48  45  87 E3        30.08F
$$

COZ035-036-038>040-230800-
...NORTHERN COLORADO FRONT RANGE...

CITY           SKY/WX    TMP DP  RH WIND       PRES   REMARKS
DENVER INTL AP CLOUDY    53  38  56 NE10      29.95F
DMNS CITY PARK   N/A     55  37  49 NE12      29.97R
AURORA         NOT AVBL
FRONT RANGE AP MOCLDY    50  43  76 N8        29.97R
ERIE MUNI ARPT FAIR      52  37  54 N6        30.01F
BOULDER MUN AP MOCLDY    54  36  50 NE3       29.96F
CENTENNIAL     LGT RAIN  55  39  54 N12       29.98R
BROOMFIELD     FAIR      54  36  50 N12       29.98F
FORT COLLINS   FAIR      53  38  56 N12       29.97R
LONGMONT       FAIR      54  39  57 CALM      29.98F
$$

COZ041-046-047-076>085-087-088-230800-
...PIKES PEAK/PALMER DIVIDE AND SOUTHERN FOOTHILLS...

CITY           SKY/WX    TMP DP  RH WIND       PRES   REMARKS
COLO. SPRINGS  FAIR      57  41  55 N14       29.95R
A. F. ACADEMY  MOCLDY    53  39  58 N13       29.96S
SCHRIEVER AFB  MOCLDY    55  40  56 N10G17    29.96R
CHEYENNE MTN   MOCLDY    58  39  49 NW10      29.93R
ELLICOTT         N/A    N/A N/A N/A N7G17     29.94F
FALCON         FAIR      52  40  62 N14       30.01R
FORT CARSON    FAIR      58  41  52 N7        29.92R
LIMON            N/A    N/A N/A N/A MISG      29.92F
MONUMENT HILL  CLOUDY    45  41  87 N6        30.05R
CANON CITY     CLEAR     63  43  48 W9        29.89S
WALSENBURG     FAIR      59  43  55 S7        29.94R
TRINIDAD       FAIR      67  54  63 S15       29.91F
$$

COZ042>045-048>051-090-091-230800-
...NORTHEAST COLORADO...

CITY           SKY/WX    TMP DP  RH WIND       PRES   REMARKS
GREELEY ARPT   FAIR      53  39  59 N10       29.95S
AKRON          FAIR      52  42  69 N18G26    29.90R
BURLINGTON     FAIR      73  60  63 SW16      29.87R
WRAY           MOCLDY    63  52  67 N6        29.84R
YUMA           FAIR      54  34  47 N13G20    29.88R
STERLING       FAIR      54  45  71 NE14G21   29.89F
HOLYOKE        FAIR      59  50  72 N14       29.89R
FORT MORGAN    MOCLDY    55  42  62 N14       29.92R
$$

COZ086-089-092>099-230800-
...SOUTHEAST COLORADO...

CITY           SKY/WX    TMP DP  RH WIND       PRES   REMARKS
PUEBLO         FAIR      65  39  38 N5        29.85S
LA JUNTA       FAIR      73  56  54 W5        29.84R
LAMAR          FAIR      73  60  63 S17G25    29.81R
SPRINGFIELD      N/A     68  63  84 S17       29.91S
$$




USA.gov is the U.S. government's official web portal to all federal, state and local government web resources and services.